ES'HAIL 2

Last updated on Sat Feb 08 2025 00:02:43 GMT+0000 (Coordinated Universal Time)

1 43700U 18090A 25038.76063122 .00000139 00000+0 00000+0 0 9998 2 43700 0.0112 108.3483 0001288 210.5695 118.7484 1.00270915 22961
UTC large
Height (km)
Speed (km/s)
/
Latitude / Longitude
Inclination (degrees)
Orbital Period (minutes)
Azimuth
Elevation
Range (km)
Doppler Factor

Next 0 passes for location: London (51.5072 / 0.1276)

Sorry there are no passes over London.